Météo

Actualisé à 10h00, Lille

icon

T : 8 °C / H : 82 %
Pression : 1023 Hpa
Vent de nord : 26 Km/h

Nuages épars à 2100 pieds
Nuages fragmentés à 2700 pieds

2024/04/21 09:00 LFQQ 210900Z AUTO 35014KT 9999 SCT021 BKN027 BKN036 08/05 Q1023 TEMPO 34018G28KT 2500 SHRA SCT009 BKN014TCU

Mots clés

Internet web infographiste flyers illustrateur graphiste webmaster PAO assistance informatique logo image invitation affiche création réalisation conception site vitrine voeux carte visite publication publicité impression plaquette charte graphique identité visuelle maintenance freelance


CSS Valide ! Valid HTML 5.0

Bienvenue

Ce site a été réalisé afin de vous faire découvrir mon métier, mes compétences, mon savoir-faire et bien entendu mes services. Vous s'y trouverez également une selection de logiciels et de liens divers et variés.



Infographiste - Web Designer

Je réalise votre logo - votre charte graphique.
Je peux également réaliser votre affiche - flyer - plaquette commerciale - catalogue publicitaire - espace pub - carte d'invitation - carte de visite - carte de fidélité - pochette cd-room ou encore votre présentation cd-room - site internet - maquette d'objet publicitaire.

Si mes services vous intéressent n'hésitez pas à me contacter.